Flag for Kazakhstan Weather past 2 weeks in Astana, Kazakhstan

Now
86 °F

Passing clouds.


Feels Like: 83 °F
Forecast: 64 / 88 °F
Wind: 3 mph from Northwest

Location: Astana

Current Time: Aug 2, 2015 at 5:29:39 PM

Latest Report: Aug 2, 2015 at 5:00 PM


Visibility: N/A

Pressure: 30.01 "Hg

Humidity: 24%

Dew point: 45 °F

Location of AstanaLocation

Historic Weather in Astana — Graph

°F

Astana temperature yesterday

Maximum temperature yesterday: 93 °F (at 3:00 PM)
Minimum temperature yesterday: 57 °F (at 5:30 AM)
Average temperature yesterday: 78 °F

Past Weeks' High & Low Weather Summary

 TemperatureHumidityPressure
High99 °F (Jul 18, 4:00 PM)94% (Jul 30, 3:30 AM)30.04 "Hg (Jul 30, 3:30 AM)
Low48 °F (Jul 20, 5:30 AM)14% (Jul 18, 4:00 PM)29.36 "Hg (Jul 18, 4:00 PM)
Average70 °F55%29.78 "Hg
* Reported Jul 18 4:00 PM — Aug 2 4:30 PM, Astana, Weather by CustomWeather, © 2015

Note: Actual official high and low records may vary slightly from our data, if they occured in-between our weather recording intervals... More about our weather records

Advertising

Astana weather history for previous 24 hours

 ConditionsComfort  
Time TempWeatherWind HumidityBarometerVisibility
4:30 PM
Sun, Aug 2
86 °FSunny.3 mph20%30.01 "Hg10 mi
4:00 PM86 °FSunny.6 mph22%30.01 "Hg10 mi
3:30 PM86 °FPassing clouds.6 mph25%30.01 "HgN/A
3:00 PM84 °FSunny.6 mph27%30.04 "Hg10 mi
2:30 PM84 °FSunny.3 mph25%30.04 "Hg10 mi
2:00 PM82 °FSunny.6 mph26%30.04 "Hg10 mi
1:30 PM82 °FSunny.6 mph26%30.04 "Hg10 mi
1:00 PM82 °FSunny.6 mph26%30.04 "Hg10 mi
12:30 PM81 °FPassing clouds.6 mph30%30.04 "HgN/A
12:00 PM81 °FPassing clouds.6 mph30%30.04 "HgN/A
11:30 AM79 °FPassing clouds.8 mph34%30.04 "HgN/A
11:00 AM79 °FPassing clouds.3 mph37%30.04 "HgN/A
10:30 AM77 °FSunny.6 mph42%30.04 "Hg10 mi
10:00 AM75 °FPassing clouds.6 mph44%30.04 "HgN/A
9:30 AM75 °FSunny.6 mph44%30.04 "Hg10 mi
9:00 AM73 °FPassing clouds.3 mph47%30.04 "HgN/A
8:30 AM73 °FPassing clouds.3 mph53%30.04 "HgN/A
8:00 AM70 °FSunny.6 mph60%30.04 "Hg10 mi
7:30 AM66 °FSunny.3 mph73%30.04 "Hg10 mi
7:00 AM64 °FPassing clouds.3 mph73%30.04 "HgN/A
6:30 AM63 °FClear.3 mph77%30.04 "Hg10 mi
6:00 AM59 °FClear.6 mph82%30.04 "Hg10 mi
5:30 AM61 °FClear.6 mph77%30.01 "Hg10 mi
5:00 AM63 °FClear.6 mph77%30.01 "Hg10 mi
4:30 AM64 °FClear.6 mph73%30.01 "Hg10 mi
4:00 AM64 °FClear.6 mph73%30.01 "Hg10 mi
3:30 AM66 °FClear.8 mph68%30.01 "Hg10 mi
3:00 AM66 °FClear.8 mph68%30.01 "Hg10 mi
2:30 AM70 °FClear.13 mph60%29.98 "Hg10 mi
2:00 AM72 °FClear.8 mph57%29.98 "Hg10 mi
1:30 AM72 °FClear.8 mph57%29.98 "Hg10 mi
1:00 AM73 °FClear.8 mph50%29.98 "Hg10 mi
12:30 AM75 °FClear.1 mph47%29.98 "Hg10 mi
12:00 AM75 °FClear.6 mph47%29.95 "Hg10 mi
11:30 PM
Sat, Aug 1
77 °FClear.6 mph42%29.95 "Hg10 mi
11:00 PM77 °FClear.6 mph42%29.95 "Hg10 mi
10:30 PM81 °FClear.3 mph34%29.95 "Hg10 mi
10:00 PM81 °FSunny.3 mph32%29.95 "Hg10 mi
9:30 PM82 °FSunny.1 mph30%29.92 "Hg10 mi
9:00 PM86 °FPassing clouds.6 mph25%29.92 "HgN/A
8:30 PM88 °FPassing clouds.6 mph22%29.89 "HgN/A
8:00 PM88 °FPassing clouds.6 mph24%29.89 "HgN/A
7:30 PM91 °FSunny.8 mph17%29.89 "Hg10 mi
7:00 PM93 °FSunny.10 mph15%29.89 "Hg10 mi
6:30 PM93 °FPassing clouds.13 mph15%29.89 "HgN/A
6:00 PM93 °FPassing clouds.13 mph15%29.89 "HgN/A
5:30 PM93 °FScattered clouds.15 mph15%29.89 "HgN/A
5:00 PM93 °FScattered clouds.15 mph15%29.89 "HgN/A
Weather by CustomWeather, © 2015

See weather overviewHow to use our weather pages